Location: Brno
(49.2000°N, 16.6330°E)
Time: 09:09:36
(UTC+02:00)

Courier 1B - All Passes

Search period start: 24 July 2021 00:00
Search period end: 03 August 2021 00:00
Orbit: 962 x 1209 km, 28.3° (Epoch: 23 July)

Date Brightness Start Highest point End Pass type
(mag) Time Alt. Az. Time Alt. Az. Time Alt. Az.
24 Jul - 01:05:39 10° SSW 01:08:01 12° S 01:10:22 10° SSE night (unlit)
25 Jul - 00:12:07 10° SSW 00:14:35 12° S 00:17:02 10° SSE night (unlit)
25 Jul - 02:06:23 10° SSW 02:07:09 10° SSW 02:07:55 10° S night (unlit)
25 Jul - 23:18:51 10° S 23:21:08 12° S 23:23:23 10° SSE visible
26 Jul - 01:11:32 10° SSW 01:13:45 12° S 01:15:55 10° S night (unlit)
26 Jul - 22:26:02 10° S 22:27:41 11° SSE 22:29:18 10° SSE visible
27 Jul - 00:17:29 10° SSW 00:20:18 13° S 00:23:05 10° SSE visible
27 Jul - 23:23:43 10° SSW 23:26:51 13° S 23:29:55 10° SSE visible
28 Jul - 22:30:11 10° SSW 22:33:22 13° S 22:36:28 10° SSE visible
29 Jul - 00:23:43 10° SSW 00:25:59 12° S 00:28:15 10° S visible
29 Jul - 21:36:55 10° SSW 21:39:51 13° S 21:42:46 10° SSE visible
29 Jul - 23:29:26 10° SSW 23:32:32 13° S 23:35:35 10° SSE visible
30 Jul - 20:44:03 10° S 20:46:20 11° SSE 20:48:37 10° SSE daylight
30 Jul - 22:35:30 10° SSW 22:39:03 14° S 22:42:30 10° SSE visible
31 Jul - 21:41:49 10° SSW 21:45:32 14° S 21:49:10 10° SSE visible
31 Jul - 23:36:04 10° SSW 23:38:11 11° SSW 23:40:16 10° S visible
01 Aug - 20:48:22 10° SSW 20:52:00 14° S 20:55:34 10° SE daylight
01 Aug - 22:41:32 10° SW 22:44:42 13° S 22:47:49 10° SSE visible
02 Aug - 19:55:12 10° SSW 19:58:27 13° S 20:01:41 10° SE daylight
02 Aug - 21:47:29 10° SW 21:51:11 14° S 21:54:51 10° SSE visible
